Regional Weather Roundup
Issued by NWS

Home | Current Version | Previous Version | Graphics & Text | Print | Product List | Glossary On
Versions: 1 2 3 4 5 6 7 8 9 10 11 12 13 14 15 16 17 18 19 20 21 22 23 24 25 26 27 28 29 30 31 32 33 34 35 36 37 38 39 40 41 42 43 44 45 46 47 48 49 50
944
ASUS45 KBOU 170007
RWRCO

WEATHER ROUNDUP FOR COLORADO
NATIONAL WEATHER SERVICE DENVER/BOULDER CO
500 PM MST MON JAN 16 2017

NOTE: "FAIR" INDICATES FEW OR NO CLOUDS BELOW 12000 FEET WITH NO
SIGNIFICANT WEATHER AND/OR OBSTRUCTIONS TO VISIBILITY.

COZ001>005-013-030-031-170100-
...NORTHWEST COLORADO...

CITY           SKY/WX    TMP DP  RH WIND       PRES   REMARKS
CRAIG          CLOUDY    20  13  74 NE6       30.16R WCI  12
HAYDEN         CLOUDY    18  10  73 CALM      30.14R
MEEKER         CLOUDY    26  15  63 SW5       30.12R WCI  20
MOUNT WERNER   NOT AVBL
STEAMBOAT SPGS CLOUDY    19  16  87 CALM      30.13R
WALDEN           N/A     23  18  80 N7        30.09R WCI  15
$$

COZ006>008-011-170100-
...WEST CENTRAL VALLEYS...

CITY           SKY/WX    TMP DP  RH WIND       PRES   REMARKS
GRAND JUNCTION FAIR      38  26  62 E5        30.07R
MONTROSE       CLOUDY    35  22  58 N3        30.09R
EAGLE          CLEAR     34  25  69 W5        30.06R WCI  30
RIFLE          FAIR      34  22  61 S3        30.09R
DELTA          CLOUDY    40  28  63 S3        30.09R
NUCLA          FAIR      36  21  55 NW6       30.07R
$$

COZ017>023-064>068-170100-
...SOUTHWEST COLORADO...

CITY           SKY/WX    TMP DP  RH WIND       PRES   REMARKS
DURANGO        LGT SNOW  32  30  92 SE5       30.01R FOG     WCI  27
CORTEZ         MIX PCPN  35  33  92 SE6       30.01R FOG     WCI  30
PAGOSA SPRINGS LGT SNOW  32  32  99 CALM      30.02R
TELLURIDE      LGT SNOW  27  25  93 W7        30.02R WCI  19
WOLF CREEK PAS CLOUDY    19  19 100 NW5       30.08R WCI  13
$$

COZ009-010-012-014-032>034-037-058>063-170100-
...CENTRAL COLORADO...

CITY           SKY/WX    TMP DP  RH WIND       PRES   REMARKS
ASPEN          CLOUDY    30  25  81 N6        30.03R WCI  24
BUENA VISTA    CLOUDY    32  29  88 SE5       30.05R FOG     WCI  27
COPPER MTN     CLOUDY    23  18  80 MISG      30.06R
BERTHOUD PASS  NOT AVBL
COTTONWOOD PAS SNOW      30  28  93 E7        30.05R VSB<1/4 WCI  23
GUNNISON       FLURRIES  28  25  88 E5        30.04R WCI  23
KREMMLING      FAIR      32  27  80 E3        30.07R
LEADVILLE      CLOUDY    23  22  96 S7        30.02R FOG     WCI  15
MONARCH PASS   CLOUDY    19  18  93 MISG      30.15R
SALIDA         CLOUDY    33  32  96 SE7       30.13R WCI  27
SUNLIGHT       FAIR      19  19 100 NE7       30.09R FOG     WCI  10
WILKERSON PASS LGT SNOW N/A N/A N/A NE3       30.08R
$$

COZ069>075-170100-
...SAN LUIS VALLEY/SANGRE DE CRISTO MOUNTAINS...

CITY           SKY/WX    TMP DP  RH WIND       PRES   REMARKS
ALAMOSA        LGT SNOW  31  31 100 SE5       30.02R FOG     WCI  26
LA VETA PASS   SNOW      21  19  93 SW16      30.06R VSB 1/2 WCI   7
SAGUACHE       LGT SNOW  32  32 100 CALM      30.04R
$$

COZ035-036-038>040-170100-
...NORTHERN COLORADO FRONT RANGE...

CITY           SKY/WX    TMP DP  RH WIND       PRES   REMARKS
DENVER INTL AP MOCLDY    34  26  72 W6        30.09R WCI  29
DMNS CITY PARK   N/A     34  28  77 SE6       30.11R WCI  29
AURORA         CLOUDY    32  28  84 SW3       30.10R
FRONT RANGE AP CLOUDY    36  30  80 W5        30.10R
ERIE MUNI ARPT CLOUDY    35  30  81 CALM      30.10R
BOULDER MUN AP CLOUDY    36  28  75 CALM      30.09R
CENTENNIAL     CLOUDY    32  25  75 W6        30.09R WCI  26
BROOMFIELD     CLOUDY    36  27  69 CALM      30.09R
FORT COLLINS   FAIR      34  27  75 S5        30.10R WCI  30
LONGMONT       CLOUDY    37  31  78 CALM      30.12R
$$

COZ041-046-047-076>085-087-088-170100-
...PIKES PEAK/PALMER DIVIDE AND SOUTHERN FOOTHILLS...

CITY           SKY/WX    TMP DP  RH WIND       PRES   REMARKS
COLO. SPRINGS  CLOUDY    33  23  66 N14       30.09R WCI  23
A. F. ACADEMY  CLOUDY    31  23  72 N10       30.08R WCI  22
SCHRIEVER AFB  NOT AVBL
ELLICOTT       LGT RAIN N/A N/A N/A N16       30.06R
FALCON         CLOUDY    30  23  74 NW13G18   30.08R WCI  20
FORT CARSON    NOT AVBL
LIMON          CLOUDY    30  27  88 NW14      30.07R WCI  19
MONUMENT HILL  CLOUDY    27  23  86 NW8       30.09R WCI  18
TRINIDAD       SNOW      32  29  88 N8        30.10R VSB 1/2 WCI  25
$$

COZ042>045-048>051-090-091-170100-
...NORTHEAST COLORADO...

CITY           SKY/WX    TMP DP  RH WIND       PRES   REMARKS
GREELEY ARPT   CLOUDY    37  24  59 CALM      30.10R
AKRON          CLOUDY    33  23  66 NW9       30.07R WCI  25
BURLINGTON     FAIR      32  27  81 N15       30.03R WCI  22
WRAY           CLOUDY    36  27  69 NW15      30.05R
STERLING       CLOUDY    36  27  69 N3        30.07R
HOLYOKE        CLOUDY    37  28  70 NW14      30.05R
FORT MORGAN    CLOUDY    35  19  52 N12       30.09R WCI  27
$$

COZ086-089-092>099-170100-
...SOUTHEAST COLORADO...

CITY           SKY/WX    TMP DP  RH WIND       PRES   REMARKS
PUEBLO         LGT RAIN  37  31  78 NE9       30.10R
LA JUNTA       SNOW      33  31  92 NW9       30.11R VSB 1/2 WCI  25
LAMAR          LGT SNOW  33  31  92 NW7       30.07R FOG     WCI  27
SPRINGFIELD      N/A     32  31  96 NW16      30.05R WCI  21
$$




USA.gov is the U.S. government's official web portal to all federal, state and local government web resources and services.